datetime,total release
1977-03-14,185.53
1977-03-15,203.68
1977-03-16,35.29
1977-03-17,333.75
1977-03-18,357.95
1977-03-19,380.14
1977-03-20,353.92
1977-03-21,295.44
1977-03-22,300.48
1977-03-23,309.55
1977-03-24,312.58
1977-03-25,314.6
1977-03-26,315.6
1977-03-27,416.44
1977-03-28,596.92
1977-03-29,510.21
1977-03-30,535.42
1977-03-31,766.32
1977-04-01,897.4
1977-04-02,816.74
1977-04-03,811.7
1977-04-04,811.7
1977-04-05,811.7
1977-04-06,776.41
1977-04-07,1008.32
1977-04-08,1134.36
1977-04-09,1199.9
1977-04-10,1240.23
1977-04-11,1265.44
1977-04-12,1109.15
1977-04-13,1133.35
1977-04-14,1109.15
1977-04-15,1109.15
1977-04-16,1109.15
1977-04-17,1109.15
1977-04-18,1109.15
1977-04-19,1184.77
1977-04-20,1189.82
1977-04-21,1189.82
1977-04-22,1124.28
1977-04-23,1124.28
1977-04-24,1169.65
1977-04-25,1169.65
1977-04-26,1169.65
1977-04-27,1169.65
1977-04-28,1169.65
1977-04-29,1169.65
1977-04-30,1169.65
1977-05-01,1169.65
1977-05-02,1199.9
1977-05-03,1194.86
1977-05-04,1189.82
1977-05-05,1189.82
1977-05-06,1194.86
1977-05-07,1215.02
1977-05-08,1240.23
1977-05-09,1255.36
1977-05-10,1265.44
1977-05-11,1285.61
1977-05-12,1255.36
1977-05-13,1209.98
1977-05-14,1230.15
1977-05-15,1237.21
1977-05-16,1242.25
1977-05-17,1245.27
1977-05-18,1245.27
1977-05-19,1220.07
1977-05-20,1246.28
1977-05-21,1250.32
1977-05-22,1209.98
1977-05-23,1220.07
1977-05-24,1230.15
1977-05-25,1230.15
1977-05-26,1235.19
1977-05-27,1235.19
1977-05-28,1235.19
1977-05-29,1225.11
1977-05-30,1199.9
1977-05-31,1199.9
1977-06-01,1218.05
1977-06-02,1185.78
1977-06-03,1228.13
1977-06-04,1239.22
1977-06-05,1239.22
1977-06-06,1234.18
1977-06-07,1235.19
1977-06-08,1238.22
1977-06-09,1244.27
1977-06-10,1221.07
1977-06-11,1225.11
1977-06-12,1225.11
1977-06-13,1191.83
1977-06-14,1183.77
1977-06-15,1184.77
1977-06-16,1180.74
1977-06-17,1184.77
1977-06-18,1184.77
1977-06-19,1164.61
1977-06-20,1195.87
1977-06-21,1216.03
1977-06-22,1216.03
1977-06-23,1243.26
1977-06-24,1237.21
1977-06-25,1247.29
1977-06-26,1268.46
1977-06-27,1275.52
1977-06-28,1264.43
1977-06-29,1215.02
1977-06-30,1207.97
1977-07-01,1209.98
1977-07-02,1209.98
1977-07-03,1209.98
1977-07-04,1209.98
1977-07-05,1209.98
1977-07-06,1209.98
1977-07-07,1209.98
1977-07-08,1209.98
1977-07-09,1209.98
1977-07-10,1209.98
1977-07-11,1209.98
1977-07-12,1209.98
1977-07-13,1209.98
1977-07-14,1209.98
1977-07-15,1209.98
1977-07-16,1209.98
1977-07-17,1209.98
1977-07-18,1209.98
1977-07-19,1209.98
1977-07-20,1209.98
1977-07-21,1209.98
1977-07-22,1209.98
1977-07-23,1209.98
1977-07-24,1209.98
1977-07-25,1209.98
1977-07-26,1209.98
1977-07-27,1209.98
1977-07-28,1209.98
1977-07-29,1209.98
1977-07-30,1209.98
1977-07-31,1209.98
1977-08-01,1209.98
1977-08-02,1209.98
1977-08-03,1209.98
1977-08-04,1209.98
1977-08-05,1209.98
1977-08-06,1209.98
1977-08-07,1209.98
1977-08-08,1209.98
1977-08-09,1209.98
1977-08-10,1209.98
1977-08-11,1209.98
1977-08-12,1209.98
1977-08-13,1209.98
1977-08-14,1209.98
1977-08-15,1209.98
1977-08-16,1209.98
1977-08-17,1209.98
1977-08-18,1209.98
1977-08-19,1209.98
1977-08-20,1209.98
1977-08-21,1209.98
1977-08-22,1209.98
1977-08-23,1209.98
1977-08-24,1209.98
1977-08-25,1164.61
1977-08-26,1104.11
1977-08-27,1078.9
1977-08-28,1078.9
1977-08-29,1078.9
1977-08-30,1078.9
1977-08-31,1078.9
1977-09-01,1078.9
1977-09-02,907.49
1977-09-03,877.24
1977-09-04,877.24
1977-09-05,877.24
1977-09-06,877.24
1977-09-07,877.24
1977-09-08,877.24
1977-09-09,806.65
1977-09-10,756.24
1977-09-11,756.24
1977-09-12,695.74
1977-09-13,554.58
1977-09-14,554.58
1977-09-15,554.58
1977-09-16,554.58
1977-09-17,554.58
1977-09-18,554.58
1977-09-19,554.58
1977-09-20,584.82
1977-09-21,604.99
1977-09-22,604.99
1977-09-23,604.99
1977-09-24,604.99
1977-09-25,604.99
1977-09-26,604.99
1977-09-27,604.99
1977-09-28,655.41
1977-09-29,655.41
1977-09-30,655.41
1977-10-01,655.41
1977-10-02,655.41
1977-10-03,655.41
1977-10-04,685.66
1977-10-05,705.82
1977-10-06,705.82
1977-10-07,665.49
1977-10-08,635.24
1977-10-09,635.24
1977-10-10,635.24
1977-10-11,635.24
1977-10-12,635.24
1977-10-13,635.24
1977-10-14,635.24
1977-10-15,635.24
1977-10-16,635.24
1977-10-17,635.24
1977-10-18,635.24
1977-10-19,635.24
1977-10-20,635.24
1977-10-21,635.24
1977-10-22,635.24
1977-10-23,635.24
1977-10-24,635.24
1977-10-25,584.82
1977-10-26,584.82
1977-10-27,584.82
1977-10-28,584.82
1977-10-29,584.82
1977-10-30,584.82
1977-10-31,504.16
1977-11-01,352.91
1977-11-02,352.91
1977-11-03,352.91
1977-11-04,352.91
1977-11-05,352.91
1977-11-06,352.91
1977-11-07,352.91
1977-11-08,352.91
1977-11-09,352.91
1977-11-10,352.91
1977-11-11,352.91
1977-11-12,352.91
1977-11-13,352.91
1977-11-14,352.91
1977-11-15,352.91
1977-11-16,352.91
1977-11-17,352.91
1977-11-18,352.91
1977-11-19,352.91
1977-11-20,352.91
1977-11-21,352.91
1977-11-22,352.91
1977-11-23,352.91
1977-11-24,352.91
1977-11-25,352.91
1977-11-26,352.91
1977-11-27,352.91
1977-11-28,352.91
1977-11-29,352.91
1977-11-30,352.91
1977-12-01,352.91
1977-12-02,352.91
1977-12-03,352.91
1977-12-04,352.91
1977-12-05,352.91
1977-12-06,352.91
1977-12-07,352.91
1977-12-08,352.91
1977-12-09,352.91
1977-12-10,352.91
1977-12-11,352.91
1977-12-12,352.91
1977-12-13,352.91
1977-12-14,352.91
1977-12-15,352.91
1977-12-16,352.91
1977-12-17,352.91
1977-12-18,352.91
1977-12-19,352.91
1977-12-20,352.91
1977-12-21,352.91
1977-12-22,352.91
1977-12-23,352.91
1977-12-24,352.91
1977-12-25,352.91
1977-12-26,352.91
1977-12-27,352.91
1977-12-28,352.91
1977-12-29,352.91
1977-12-30,352.91
1977-12-31,352.91
1978-01-01,352.91
1978-01-02,352.91
1978-01-03,352.91
1978-01-04,352.91
1978-01-05,352.91
1978-01-06,287.37
1978-01-07,201.66
1978-01-08,201.66
1978-01-09,403.33
1978-01-10,504.16
1978-01-11,504.16
1978-01-12,504.16
1978-01-13,504.16
1978-01-14,504.16
1978-01-15,504.16
1978-01-16,504.16
1978-01-17,504.16
1978-01-18,504.16
1978-01-19,504.16
1978-01-20,504.16
1978-01-21,504.16
1978-01-22,504.16
1978-01-23,504.16
1978-01-24,504.16
1978-01-25,504.16
1978-01-26,504.16
1978-01-27,504.16
1978-01-28,504.16
1978-01-29,504.16
1978-01-30,504.16
1978-01-31,504.16
1978-02-01,504.16
1978-02-02,504.16
1978-02-03,504.16
1978-02-04,504.16
1978-02-05,504.16
1978-02-06,504.16
1978-02-07,504.16
1978-02-08,504.16
1978-02-09,504.16
1978-02-10,504.16
1978-02-11,504.16
1978-02-12,504.16
1978-02-13,504.16
1978-02-14,504.16
1978-02-15,504.16
1978-02-16,504.16
1978-02-17,504.16
1978-02-18,504.16
1978-02-19,504.16
1978-02-20,504.16
1978-02-21,504.16
1978-02-22,504.16
1978-02-23,504.16
1978-02-24,504.16
1978-02-25,504.16
1978-02-26,504.16
1978-02-27,504.16
1978-02-28,504.16
1978-03-01,504.16
1978-03-02,504.16
1978-03-03,504.16
1978-03-04,504.16
1978-03-05,504.16
1978-03-06,504.16
1978-03-07,504.16
1978-03-08,504.16
1978-03-09,504.16
1978-03-10,504.16
1978-03-11,504.16
1978-03-12,504.16
1978-03-13,504.16
1978-03-14,504.16
1978-03-15,504.16
1978-03-16,504.16
1978-03-17,504.16
1978-03-18,504.16
1978-03-19,504.16
1978-03-20,504.16
1978-03-21,504.16
1978-03-22,504.16
1978-03-23,504.16
1978-03-24,504.16
1978-03-25,504.16
1978-03-26,504.16
1978-03-27,504.16
1978-03-28,504.16
1978-03-29,504.16
1978-03-30,504.16
1978-03-31,504.16
1978-04-01,655.41
1978-04-02,655.41
1978-04-03,655.41
1978-04-04,831.86
1978-04-05,1020.42
1978-04-06,1081.42
1978-04-07,1078.9
1978-04-08,1078.9
1978-04-09,1078.9
1978-04-10,1023.44
1978-04-11,1028.48
1978-04-12,1028.48
1978-04-13,1099.07
1978-04-14,1149.48
1978-04-15,1179.73
1978-04-16,1179.73
1978-04-17,1179.73
1978-04-18,1179.73
1978-04-19,1179.73
1978-04-20,1209.98
1978-04-21,1230.15
1978-04-22,1230.15
1978-04-23,1230.15
1978-04-24,1230.15
1978-04-25,1230.15
1978-04-26,1230.15
1978-04-27,1230.15
1978-04-28,1230.15
1978-04-29,1230.15
1978-04-30,1230.15
1978-05-01,1230.15
1978-05-02,1261.91
1978-05-03,1250.32
1978-05-04,1220.07
1978-05-05,1220.07
1978-05-06,1220.07
1978-05-07,1220.07
1978-05-08,1094.03
1978-05-09,1018.4
1978-05-10,1018.4
1978-05-11,1018.4
1978-05-12,1018.4
1978-05-13,1018.4
1978-05-14,1018.4
1978-05-15,907.49
1978-05-16,962.94
1978-05-17,1411.65
1978-05-18,1613.31
1978-05-19,1472.15
1978-05-20,1209.98
1978-05-21,1209.98
1978-05-22,1209.98
1978-05-23,1209.98
1978-05-24,1003.28
1978-05-25,1124.28
1978-05-26,1386.44
1978-05-27,1512.48
1978-05-28,1512.48
1978-05-29,1512.48
1978-05-30,1376.35
1978-05-31,1260.4
1978-06-01,1260.4
1978-06-02,1260.4
1978-06-03,1260.4
1978-06-04,1260.4
1978-06-05,1260.4
1978-06-06,1260.4
1978-06-07,1184.77
1978-06-08,1043.61
1978-06-09,1078.9
1978-06-10,1159.57
1978-06-11,1159.57
1978-06-12,1709.1
1978-06-13,2097.3
1978-06-14,2218.3
1978-06-15,2097.3
1978-06-16,2198.13
1978-06-17,2198.13
1978-06-18,2198.13
1978-06-19,2198.13
1978-06-20,2198.13
1978-06-21,2198.13
1978-06-22,2198.13
1978-06-23,2198.13
1978-06-24,2198.13
1978-06-25,2198.13
1978-06-26,2198.13
1978-06-27,2198.13
1978-06-28,2258.63
1978-06-29,2601.46
1978-06-30,3206.45
1978-07-01,2425.01
1978-07-02,2742.63
1978-07-03,2747.67
1978-07-04,2762.79
1978-07-05,2382.15
1978-07-06,1814.97
1978-07-07,1497.35
1978-07-08,1209.98
1978-07-09,1209.98
1978-07-10,1209.98
1978-07-11,1285.61
1978-07-12,1213.51
1978-07-13,1502.39
1978-07-14,1244.27
1978-07-15,1209.98
1978-07-16,1250.32
1978-07-17,1547.77
1978-07-18,1593.14
1978-07-19,2520.8
1978-07-20,2520.8
1978-07-21,2520.8
1978-07-22,2520.8
1978-07-23,2520.8
1978-07-24,2107.39
1978-07-25,1825.06
1978-07-26,1774.64
1978-07-27,1724.22
1978-07-28,1734.31
1978-07-29,1774.64
1978-07-30,1774.64
1978-07-31,1401.56
1978-08-01,1209.98
1978-08-02,1240.23
1978-08-03,1209.98
1978-08-04,1209.98
1978-08-05,1209.98
1978-08-06,1209.98
1978-08-07,1209.98
1978-08-08,1209.98
1978-08-09,1492.31
1978-08-10,1774.64
1978-08-11,1734.31
1978-08-12,1578.02
1978-08-13,1583.06
1978-08-14,1588.1
1978-08-15,1532.64
1978-08-16,1542.73
1978-08-17,1542.73
1978-08-18,1542.73
1978-08-19,1507.44
1978-08-20,1673.81
1978-08-21,1581.55
1978-08-22,1488.78
1978-08-23,1532.64
1978-08-24,1557.85
1978-08-25,1487.27
1978-08-26,1542.73
1978-08-27,1497.35
1978-08-28,1391.48
1978-08-29,1512.48
1978-08-30,1396.52
1978-08-31,1431.81
1978-09-01,1522.56
1978-09-02,1467.1
1978-09-03,1492.31
1978-09-04,1532.64
1978-09-05,1593.14
1978-09-06,1537.69
1978-09-07,1583.06
1978-09-08,1396.52
1978-09-09,1537.69
1978-09-10,1593.14
1978-09-11,1527.6
1978-09-12,1527.6
1978-09-13,1547.77
1978-09-14,1572.98
1978-09-15,1557.85
1978-09-16,1482.23
1978-09-17,1361.23
1978-09-18,1451.98
1978-09-19,1482.23
1978-09-20,1517.52
1978-09-21,1386.44
1978-09-22,1502.39
1978-09-23,1482.23
1978-09-24,1341.06
1978-09-25,1497.35
1978-09-26,1507.44
1978-09-27,1502.39
1978-09-28,1245.27
1978-09-29,1275.52
1978-09-30,1300.73
1978-10-01,1275.52
1978-10-02,1275.52
1978-10-03,1038.57
1978-10-04,872.2
1978-10-05,872.2
1978-10-06,872.2
1978-10-07,872.2
1978-10-08,872.2
1978-10-09,872.2
1978-10-10,872.2
1978-10-11,872.2
1978-10-12,872.2
1978-10-13,1018.4
1978-10-14,1341.06
1978-10-15,1341.57
1978-10-16,1225.11
1978-10-17,1310.81
1978-10-18,1270.48
1978-10-19,1280.56
1978-10-20,1280.56
1978-10-21,1280.56
1978-10-22,1280.56
1978-10-23,1240.23
1978-10-24,1104.11
1978-10-25,1320.9
1978-10-26,1245.27
1978-10-27,1477.19
1978-10-28,1280.56
1978-10-29,1531.13
1978-10-30,1282.08
1978-10-31,1260.4
1978-11-01,1336.02
1978-11-02,1270.48
1978-11-03,1366.27
1978-11-04,1270.48
1978-11-05,1280.56
1978-11-06,761.28
1978-11-07,534.41
1978-11-08,1071.34
1978-11-09,1230.15
1978-11-10,1280.56
1978-11-11,1280.56
1978-11-12,1280.56
1978-11-13,620.12
1978-11-14,201.66
1978-11-15,831.86
1978-11-16,1209.98
1978-11-17,852.03
1978-11-18,201.66
1978-11-19,201.66
1978-11-20,831.86
1978-11-21,1209.98
1978-11-22,1209.98
1978-11-23,1209.98
1978-11-24,907.49
1978-11-25,504.16
1978-11-26,504.16
1978-11-27,917.57
1978-11-28,1209.98
1978-11-29,1209.98
1978-11-30,1209.98
1978-12-01,1209.98
1978-12-02,1209.98
1978-12-03,1209.98
1978-12-04,1220.07
1978-12-05,1280.56
1978-12-06,1608.27
1978-12-07,1608.27
1978-12-08,1608.27
1978-12-09,1593.14
1978-12-10,1492.31
1978-12-11,1482.23
1978-12-12,1341.06
1978-12-13,1255.36
1978-12-14,1351.15
1978-12-15,1658.68
1978-12-16,1693.98
1978-12-17,1693.98
1978-12-18,1699.02
1978-12-19,1588.1
1978-12-20,1532.64
1978-12-21,1444.42
1978-12-22,1693.98
1978-12-23,1693.98
1978-12-24,1663.73
1978-12-25,1663.73
1978-12-26,1699.02
1978-12-27,1699.02
1978-12-28,1693.98
1978-12-29,1693.98
1978-12-30,1618.35
1978-12-31,1482.23
1979-01-01,1693.98
1979-01-02,1699.02
1979-01-03,1709.1
1979-01-04,1693.98
1979-01-05,1701.03
1979-01-06,1693.98
1979-01-07,1697.0
1979-01-08,1693.98
1979-01-09,1693.98
1979-01-10,1693.98
1979-01-11,1688.93
1979-01-12,1693.98
1979-01-13,1693.98
1979-01-14,1693.98
1979-01-15,1693.98
1979-01-16,1693.98
1979-01-17,1704.06
1979-01-18,1699.02
1979-01-19,1749.43
1979-01-20,1693.98
1979-01-21,1749.43
1979-01-22,1699.02
1979-01-23,1693.98
1979-01-24,1693.98
1979-01-25,1693.98
1979-01-26,1693.98
1979-01-27,1693.98
1979-01-28,1693.98
1979-01-29,1693.98
1979-01-30,1709.1
1979-01-31,1729.27
1979-02-01,1774.64
1979-02-02,1779.68
1979-02-03,1774.64
1979-02-04,1779.68
1979-02-05,1930.93
1979-02-06,2006.55
1979-02-07,2117.47
1979-02-08,2117.47
1979-02-09,2117.47
1979-02-10,2142.68
1979-02-11,2117.47
1979-02-12,2072.09
1979-02-13,2117.47
1979-02-14,2374.59
1979-02-15,2490.55
1979-02-16,2621.63
1979-02-17,2621.63
1979-02-18,2621.63
1979-02-19,2621.63
1979-02-20,2621.63
1979-02-21,2581.3
1979-02-22,2621.63
1979-02-23,2621.63
1979-02-24,2621.63
1979-02-25,2621.63
1979-02-26,2621.63
1979-02-27,2621.63
1979-02-28,2621.63
1979-03-01,2621.63
1979-03-02,2621.63
1979-03-03,2581.3
1979-03-04,2591.38
1979-03-05,2611.55
1979-03-06,2621.63
1979-03-07,2561.13
1979-03-08,2621.63
1979-03-09,2621.63
1979-03-10,2621.63
1979-03-11,2621.63
1979-03-12,2601.46
1979-03-13,2621.63
1979-03-14,2611.55
1979-03-15,2621.63
1979-03-16,2621.63
1979-03-17,2621.63
1979-03-18,2631.71
1979-03-19,2621.63
1979-03-20,2621.63
1979-03-21,2621.63
1979-03-22,2621.63
1979-03-23,2611.55
1979-03-24,2621.63
1979-03-25,2621.63
1979-03-26,2621.63
1979-03-27,2631.71
1979-03-28,2621.63
1979-03-29,2611.55
1979-03-30,2621.63
1979-03-31,2621.63
1979-04-01,2621.63
1979-04-02,2621.63
1979-04-03,2621.63
1979-04-04,2621.63
1979-04-05,2621.63
1979-04-06,2621.63
1979-04-07,2581.3
1979-04-08,2561.13
1979-04-09,2621.63
1979-04-10,2621.63
1979-04-11,2621.63
1979-04-12,2621.63
1979-04-13,2621.63
1979-04-14,2621.63
1979-04-15,2621.63
1979-04-16,2621.63
1979-04-17,2591.38
1979-04-18,2621.63
1979-04-19,2611.55
1979-04-20,2621.63
1979-04-21,2581.3
1979-04-22,2621.63
1979-04-23,2611.55
1979-04-24,2616.59
1979-04-25,2606.5
1979-04-26,2510.71
1979-04-27,2611.55
1979-04-28,2621.63
1979-04-29,2500.63
1979-04-30,2601.46
1979-05-01,2621.63
1979-05-02,2591.38
1979-05-03,2621.63
1979-05-04,2324.17
1979-05-05,2551.05
1979-05-06,2621.63
1979-05-07,2621.63
1979-05-08,2535.92
1979-05-09,2621.63
1979-05-10,2586.34
1979-05-11,2601.46
1979-05-12,2540.96
1979-05-13,2621.63
1979-05-14,2581.3
1979-05-15,2298.97
1979-05-16,2117.47
1979-05-17,2117.47
1979-05-18,2117.47
1979-05-19,2117.47
1979-05-20,2087.22
1979-05-21,2122.51
1979-05-22,2117.47
1979-05-23,2112.43
1979-05-24,2107.39
1979-05-25,2117.47
1979-05-26,2107.39
1979-05-27,2117.47
1979-05-28,2117.47
1979-05-29,2112.43
1979-05-30,2051.93
1979-05-31,2112.43
1979-06-01,2117.47
1979-06-02,2117.47
1979-06-03,2087.22
1979-06-04,2117.47
1979-06-05,2097.3
1979-06-06,2117.47
1979-06-07,2107.39
1979-06-08,2117.47
1979-06-09,2097.3
1979-06-10,2117.47
1979-06-11,2006.55
1979-06-12,2016.64
1979-06-13,857.07
1979-06-14,1603.23
1979-06-15,2107.39
1979-06-16,2107.39
1979-06-17,2117.47
1979-06-18,2077.14
1979-06-19,2056.97
1979-06-20,2026.72
1979-06-21,2117.47
1979-06-22,2117.47
1979-06-23,2117.47
1979-06-24,2051.93
1979-06-25,1875.47
1979-06-26,1875.47
1979-06-27,1875.47
1979-06-28,1870.43
1979-06-29,1875.47
1979-06-30,1870.43
1979-07-01,1875.47
1979-07-02,1875.47
1979-07-03,2208.22
1979-07-04,2621.63
1979-07-05,2591.38
1979-07-06,2082.18
1979-07-07,2561.13
1979-07-08,2571.21
1979-07-09,2561.13
1979-07-10,2525.84
1979-07-11,2379.63
1979-07-12,2379.63
1979-07-13,2379.63
1979-07-14,2379.63
1979-07-15,2379.63
1979-07-16,2374.59
1979-07-17,2087.22
1979-07-18,1870.43
1979-07-19,1875.47
1979-07-20,1865.39
1979-07-21,1875.47
1979-07-22,1870.43
1979-07-23,1875.47
1979-07-24,1875.47
1979-07-25,1875.47
1979-07-26,1875.47
1979-07-27,1875.47
1979-07-28,1875.47
1979-07-29,1875.47
1979-07-30,1875.47
1979-07-31,1875.47
1979-08-01,1875.47
1979-08-02,1860.35
1979-08-03,1830.1
1979-08-04,1855.31
1979-08-05,1850.26
1979-08-06,1875.47
1979-08-07,1870.43
1979-08-08,1875.47
1979-08-09,1870.43
1979-08-10,1875.47
1979-08-11,1870.43
1979-08-12,1875.47
1979-08-13,1870.43
1979-08-14,1875.47
1979-08-15,1870.43
1979-08-16,1875.47
1979-08-17,1875.47
1979-08-18,1875.47
1979-08-19,1870.43
1979-08-20,1799.85
1979-08-21,1875.47
1979-08-22,1870.43
1979-08-23,1875.47
1979-08-24,1870.43
1979-08-25,1875.47
1979-08-26,1870.43
1979-08-27,1875.47
1979-08-28,1870.43
1979-08-29,1875.47
1979-08-30,1875.47
1979-08-31,1875.47
1979-09-01,1875.47
1979-09-02,1875.47
1979-09-03,1830.1
1979-09-04,1809.93
1979-09-05,1875.47
1979-09-06,1875.47
1979-09-07,1875.47
1979-09-08,1875.47
1979-09-09,1875.47
1979-09-10,1875.47
1979-09-11,1875.47
1979-09-12,1870.43
1979-09-13,1875.47
1979-09-14,1870.43
1979-09-15,1875.47
1979-09-16,1875.47
1979-09-17,1875.47
1979-09-18,1875.47
1979-09-19,1870.43
1979-09-20,1875.47
1979-09-21,1870.43
1979-09-22,1870.43
1979-09-23,1875.47
1979-09-24,1875.47
1979-09-25,1875.47
1979-09-26,1870.43
1979-09-27,1875.47
1979-09-28,1875.47
1979-09-29,1875.47
1979-09-30,1875.47
1979-10-01,1875.47
1979-10-02,1875.47
1979-10-03,1875.47
1979-10-04,1416.69
1979-10-05,1875.47
1979-10-06,1875.47
1979-10-07,1875.47
1979-10-08,1870.43
1979-10-09,1875.47
1979-10-10,1542.73
1979-10-11,1336.02
1979-10-12,1532.64
1979-10-13,1870.43
1979-10-14,1870.43
1979-10-15,1875.47
1979-10-16,1336.02
1979-10-17,1008.32
1979-10-18,1008.32
1979-10-19,1008.32
1979-10-20,1008.32
1979-10-21,1008.32
1979-10-22,1008.32
1979-10-23,844.47
1979-10-24,756.24
1979-10-25,705.82
1979-10-26,705.82
1979-10-27,705.82
1979-10-28,736.07
1979-10-29,705.82
1979-10-30,705.82
1979-10-31,705.82
1979-11-01,1114.19
1979-11-02,1109.15
1979-11-03,604.99
1979-11-04,604.99
1979-11-05,604.99
1979-11-06,604.99
1979-11-07,1078.9
1979-11-08,1547.77
1979-11-09,1547.77
1979-11-10,1492.31
1979-11-11,1547.77
1979-11-12,1547.77
1979-11-13,892.36
1979-11-14,549.53
1979-11-15,604.99
1979-11-16,604.99
1979-11-17,604.99
1979-11-18,604.99
1979-11-19,604.99
1979-11-20,604.99
1979-11-21,604.99
1979-11-22,604.99
1979-11-23,604.99
1979-11-24,604.99
1979-11-25,604.99
1979-11-26,604.99
1979-11-27,604.99
1979-11-28,973.03
1979-11-29,1411.65
1979-11-30,1411.65
1979-12-01,1351.15
1979-12-02,1769.6
1979-12-03,1744.39
1979-12-04,1754.47
1979-12-05,1769.6
1979-12-06,1779.68
1979-12-07,1754.47
1979-12-08,1774.64
1979-12-09,1764.56
1979-12-10,1759.52
1979-12-11,1734.31
1979-12-12,1688.93
1979-12-13,1693.98
1979-12-14,1693.98
1979-12-15,1693.98
1979-12-16,1693.98
1979-12-17,1678.85
1979-12-18,1693.98
1979-12-19,1688.93
1979-12-20,1688.93
1979-12-21,1693.98
1979-12-22,1688.93
1979-12-23,1693.98
1979-12-24,1688.93
1979-12-25,1693.98
1979-12-26,1688.93
1979-12-27,1688.93
1979-12-28,1653.64
1979-12-29,1688.93
1979-12-30,1683.89
1979-12-31,1688.93
1980-01-01,1683.89
1980-01-02,1693.98
1980-01-03,1693.98
1980-01-04,1688.93
1980-01-05,1693.98
1980-01-06,1693.98
1980-01-07,1693.98
1980-01-08,1693.98
1980-01-09,1693.98
1980-01-10,1693.98
1980-01-11,1693.98
1980-01-12,1693.98
1980-01-13,1693.98
1980-01-14,1693.98
1980-01-15,1693.98
1980-01-16,1280.56
1980-01-17,1003.28
1980-01-18,1502.39
1980-01-19,1693.98
1980-01-20,1693.98
1980-01-21,1688.93
1980-01-22,1688.93
1980-01-23,1693.98
1980-01-24,1688.93
1980-01-25,1688.93
1980-01-26,1693.98
1980-01-27,1688.93
1980-01-28,1693.98
1980-01-29,1688.93
1980-01-30,1688.93
1980-01-31,1688.93
1980-02-01,1688.93
1980-02-02,1688.93
1980-02-03,1688.93
1980-02-04,1693.98
1980-02-05,1693.98
1980-02-06,1693.98
1980-02-07,1688.93
1980-02-08,1693.98
1980-02-09,1688.93
1980-02-10,1693.98
1980-02-11,1693.98
1980-02-12,1693.98
1980-02-13,1693.98
1980-02-14,1688.93
1980-02-15,1693.98
1980-02-16,1693.98
1980-02-17,1693.98
1980-02-18,1693.98
1980-02-19,1693.98
1980-02-20,1693.98
1980-02-21,1693.98
1980-02-22,1693.98
1980-02-23,1693.98
1980-02-24,1693.98
1980-02-25,1688.93
1980-02-26,1683.89
1980-02-27,1688.93
1980-02-28,1688.93
1980-02-29,1688.93
1980-03-01,1688.93
1980-03-02,1688.93
1980-03-03,1688.93
1980-03-04,1688.93
1980-03-05,1693.98
1980-03-06,1688.93
1980-03-07,1996.47
1980-03-08,1991.43
1980-03-09,1976.3
1980-03-10,1991.43
1980-03-11,1991.43
1980-03-12,1996.47
1980-03-13,1991.43
1980-03-14,1996.47
1980-03-15,1991.43
1980-03-16,2092.26
1980-03-17,1991.43
1980-03-18,1991.43
1980-03-19,1996.47
1980-03-20,1996.47
1980-03-21,1996.47
1980-03-22,1996.47
1980-03-23,1991.43
1980-03-24,1774.64
1980-03-25,1693.98
1980-03-26,1547.77
1980-03-27,1441.9
1980-03-28,1199.9
1980-03-29,1693.98
1980-03-30,1688.93
1980-03-31,1693.98
1980-04-01,1890.6
1980-04-02,1895.64
1980-04-03,1895.64
1980-04-04,1895.64
1980-04-05,1895.64
1980-04-06,1895.64
1980-04-07,1895.64
1980-04-08,1895.64
1980-04-09,1895.64
1980-04-10,1809.93
1980-04-11,1905.72
1980-04-12,2198.13
1980-04-13,2198.13
1980-04-14,2374.59
1980-04-15,2500.63
1980-04-16,2500.63
1980-04-17,2500.63
1980-04-18,2500.63
1980-04-19,2500.63
1980-04-20,2500.63
1980-04-21,2500.63
1980-04-22,2490.55
1980-04-23,2500.63
1980-04-24,2500.63
1980-04-25,2500.63
1980-04-26,2500.63
1980-04-27,2430.05
1980-04-28,2500.63
1980-04-29,2500.63
1980-04-30,2500.63
1980-05-01,2500.63
1980-05-02,2500.63
1980-05-03,2500.63
1980-05-04,2500.63
1980-05-05,2500.63
1980-05-06,2495.59
1980-05-07,2505.67
1980-05-08,2581.3
1980-05-09,2576.25
1980-05-10,2530.88
1980-05-11,2697.25
1980-05-12,2984.62
1980-05-13,3307.29
1980-05-14,3307.29
1980-05-15,3307.29
1980-05-16,3302.24
1980-05-17,3307.29
1980-05-18,3302.24
1980-05-19,3307.29
1980-05-20,3307.29
1980-05-21,3307.29
1980-05-22,3307.29
1980-05-23,3307.29
1980-05-24,3307.29
1980-05-25,3307.29
1980-05-26,3302.24
1980-05-27,3070.33
1980-05-28,2803.13
1980-05-29,2621.63
1980-05-30,2399.8
1980-05-31,2399.8
1980-06-01,2399.8
1980-06-02,2399.8
1980-06-03,2399.8
1980-06-04,2399.8
1980-06-05,2399.8
1980-06-06,2394.76
1980-06-07,2399.8
1980-06-08,2394.76
1980-06-09,2399.8
1980-06-10,2631.71
1980-06-11,3176.2
1980-06-12,3403.08
1980-06-13,3408.12
1980-06-14,3408.12
1980-06-15,3413.16
1980-06-16,3408.12
1980-06-17,3413.16
1980-06-18,3392.99
1980-06-19,3140.91
1980-06-20,2903.96
1980-06-21,2903.96
1980-06-22,2903.96
1980-06-23,2702.29
1980-06-24,2500.63
1980-06-25,2500.63
1980-06-26,2505.67
1980-06-27,2500.63
1980-06-28,2500.63
1980-06-29,2500.63
1980-06-30,2495.59
1980-07-01,3004.79
1980-07-02,3004.79
1980-07-03,3004.79
1980-07-04,3004.79
1980-07-05,3004.79
1980-07-06,3004.79
1980-07-07,2500.63
1980-07-08,2500.63
1980-07-09,2288.88
1980-07-10,1996.47
1980-07-11,1870.43
1980-07-12,1693.98
1980-07-13,1693.98
1980-07-14,1693.98
1980-07-15,1693.98
1980-07-16,1688.93
1980-07-17,1693.98
1980-07-18,1693.98
1980-07-19,1693.98
1980-07-20,1693.98
1980-07-21,1693.98
1980-07-22,1693.98
1980-07-23,1693.98
1980-07-24,1693.98
1980-07-25,1688.93
1980-07-26,1693.98
1980-07-27,1693.98
1980-07-28,1688.93
1980-07-29,1693.98
1980-07-30,1688.93
1980-07-31,1688.93
1980-08-01,1693.98
1980-08-02,1688.93
1980-08-03,1693.98
1980-08-04,1799.85
1980-08-05,1991.43
1980-08-06,1996.47
1980-08-07,1809.93
1980-08-08,1693.98
1980-08-09,1688.93
1980-08-10,1693.98
1980-08-11,1608.27
1980-08-12,1693.98
1980-08-13,1693.98
1980-08-14,1693.98
1980-08-15,1688.93
1980-08-16,1688.93
1980-08-17,1693.98
1980-08-18,1688.93
1980-08-19,1693.98
1980-08-20,1688.93
1980-08-21,1693.98
1980-08-22,1643.56
1980-08-23,1693.98
1980-08-24,1688.93
1980-08-25,1890.6
1980-08-26,1991.43
1980-08-27,1817.49
1980-08-28,1693.98
1980-08-29,1688.93
1980-08-30,1699.02
1980-08-31,1699.02
1980-09-01,1663.73
1980-09-02,1562.89
1980-09-03,1482.23
1980-09-04,1482.23
1980-09-05,1482.23
1980-09-06,1482.23
1980-09-07,1482.23
1980-09-08,1482.23
1980-09-09,1482.23
1980-09-10,1482.23
1980-09-11,1482.23
1980-09-12,1522.56
1980-09-13,1693.98
1980-09-14,1688.93
1980-09-15,1693.98